Regional Weather Roundup
Issued by NWS Midland/Odessa, TX

Home | Current Version | Previous Version | Text Only | Print | Product List | Glossary On
Versions: 1 2 3 4 5 6 7 8 9 10 11 12 13 14 15 16 17 18 19 20 21 22 23 24 25 26 27 28 29 30 31 32 33 34 35 36 37 38 39 40 41 42 43 44 45 46 47 48 49 50
000
ASUS44 KMAF 200502
RWRMAF
MIDLAND AREA WEATHER ROUNDUP
NATIONAL WEATHER SERVICE MIDLAND TX
1200 AM CDT SAT SEP 20 2014

...IN SOUTHWEST TEXAS AND SOUTHEAST NEW MEXICO...

CITY           SKY/WX    TMP DP  RH WIND       PRES   REMARKS
ALPINE         MOCLDY    70  65  85 S8        30.13S
ANDREWS        CLOUDY    70  68  94 SE9       30.02S
ARTESIA        NOT AVBL
BIG SPRING     CLOUDY    74  69  85 E9        30.02R
CARLSBAD       CLOUDY    71  32  23 N5        29.99S
DRYDEN           N/A     83  70  64 SE8       29.94R
FORT STOCKTON  LGT RAIN  72  70  93 CALM      29.99F
GUAD PASS      FOG       65  64  97 E17         N/A  VSB 1/4
HOBBS          CLOUDY    68  68 100 E7        30.05S
MARFA          PTCLDY    66  63  88 E5        30.11F
MIDLAND AIRPK  NOT AVBL
MIDLAND INTL   CLOUDY    72  70  93 SE10      29.99S
ODESSA         LGT RAIN  71  69  93 SE13      30.01R
PECOS          CLOUDY    72  68  88 SE9       29.96R
PRESIDIO       CLOUDY    79  63  58 MISG      29.95R
SEMINOLE       CLOUDY    69  69  99 SE7       30.04S
SNYDER         CLOUDY    72  70  95 SE6       30.01S
WINK           CLOUDY    74  69  85 SE7       29.97R
$$
...OTHER STATIONS IN TEXAS...

CITY           SKY/WX    TMP DP  RH WIND       PRES   REMARKS
ABILENE        CLOUDY    74  70  87 SE3       29.99R
AMARILLO       CLEAR     66  64  93 S13       30.05S
AUSTIN         CLOUDY    76  74  93 E3        29.93S
BROWNSVILLE    MOCLDY    82  79  90 SE5       29.86S
CORPUS CHRISTI PTCLDY    81  76  84 E9        29.88S
DALLAS FTW     MOCLDY    80  69  69 SE9       29.95S
DEL RIO        MOCLDY    82  72  71 E10G20    29.90R
EL PASO        PTCLDY    74  64  71 CALM      30.00R
HOUSTON INT    MOCLDY    74  73  97 CALM      29.93S
LUBBOCK        CLOUDY    69  67  93 SE8       30.04R
SAN ANGELO     MOCLDY    71  69  93 E3        29.97S
SAN ANTONIO    MOCLDY    78  74  87 E7        29.94S
WACO           MOCLDY    76  71  85 SE6       29.95S
WICHITA FALLS  NOT AVBL
$$
...OTHER LOCATIONS IN NEW MEXICO...

CITY           SKY/WX    TMP DP  RH WIND       PRES   REMARKS
ALAMAGORDO     CLEAR     68  64  88 CALM      30.04R
ALBUQUERQUE    CLEAR     70  56  61 E8        30.09R
CANNON AFB     MOCLDY    64 N/A N/A S2        30.09S
CLOVIS           N/A     64  63  94 SE7       30.11S
HOLLOMAN AFB   CLEAR     69  66  91 E6        30.01R
ROSWELL        CLOUDY    69  66  90 CALM      30.04R
RUIDOSO        CLOUDY    59  59 100 S6        30.23R
SANTA FE       CLEAR     65  55  70 SE9       30.16R
TRUTH OR CONSE CLEAR     70  64  81 E3        30.05R
TUCUMCARI      PTCLDY    67  61  81 S9        30.05R
$$



USA.gov is the U.S. government's official web portal to all federal, state and local government web resources and services.